Regional Weather Roundup
Issued by NWS

Home | Current Version | Previous Version | Text Only | Print | Product List | Glossary On
Versions: 1 2 3 4 5 6 7 8 9 10 11 12 13 14 15 16 17 18 19 20 21 22 23 24 25 26 27 28 29 30 31 32 33 34 35 36 37 38 39 40 41 42 43 44 45 46 47 48 49 50
000
ASUS45 KABQ 221601
RWRNM
WEATHER ROUNDUP FOR NEW MEXICO
NATIONAL WEATHER SERVICE ALBUQUERQUE NM
900 AM MST MON DEC 22 2014

NOTE: "FAIR" MEANS FEW OR NO CLOUDS BELOW 12,000 FEET AGL WITH NO
       SIGNIFICANT WEATHER OR OBSTRUCTIONS TO VISION.

      THIS PRODUCT IS RELEASED AS TWO VERSIONS.  ONE VERSION NEAR
      THE TOP OF THE HOUR CONTAINING PRELIMINARY DATA FROM ALBUQUERQUE
      AND OTHER STATIONS.  A FINAL VERSION WITH ADDITIONAL DATA IS
      ISSUED ABOUT 10 MINUTES AFTER THE HOUR.

NMZ501-503-504-510>518-221700-
NORTHWEST PLATEAU/NORTHCENTRAL MOUNTAINS

CITY           SKY/WX    TMP DP  RH WIND       PRES   REMARKS
FARMINGTON     SUNNY     40  32  73 SW9       29.89F WCI  34
SANTA FE       MOSUNNY   43  29  57 W12G17    29.85S
TAOS           PTSUNNY   37  28  70 SW10      29.82S WCI  30

$$
NMZ402-403-502-505>509-221700-
WESTCENTRAL MOUNTAINS/SOUTHWEST MOUNTAINS

CITY           SKY/WX    TMP DP  RH WIND       PRES   REMARKS
GALLUP         SUNNY     39  32  76 W10       30.01S WCI  32
SILVER CITY    SUNNY     45  32  61 NW20      30.00R

$$
NMZ407-409-411-412-221700-
SOUTHERN DESERTS

CITY           SKY/WX    TMP DP  RH WIND       PRES   REMARKS
DEMING         SUNNY     43  33  68 S6        29.98R
ALAMOGORDO     MOSUNNY   41  32  70 CALM      29.91S
T OR C         SUNNY     56  32  40 NW13G22   29.92R

$$
NMZ519>523-221700-
CENTRAL VALLEYS/CENTRAL HIGHLANDS

CITY           SKY/WX    TMP DP  RH WIND       PRES   REMARKS
ALBUQUERQUE    PTSUNNY   41  33  73 S6        29.91S
DOUBLE EAGLE   PTSUNNY   45  32  61 W7        29.92S
CLINES CORNERS MOSUNNY   44  30  57 W33G49    29.83F
BELEN          FAIR      50  33  52 SW12      29.91S
SOCORRO        NOT AVBL

$$
NMZ524>526-539-540-221700-
SOUTHCENTRAL MOUNTAINS

CITY           SKY/WX    TMP DP  RH WIND       PRES   REMARKS
RUIDOSO        SUNNY     48  27  43 NW21G40   29.88F

$$
NMZ527>531-221700-
NORTHEAST HIGHLANDS/NORTHEAST PLAINS

CITY           SKY/WX    TMP DP  RH WIND       PRES   REMARKS
LAS VEGAS      MOSUNNY   48  23  37 W21G37    29.76F
RATON          CLOUDY    31  27  85 CALM      29.79R
CLAYTON        CLOUDY    37  30  75 NW14G23   29.78R WCI  28

$$
NMZ532>537-221700-
EASTCENTRAL PLAINS

CITY           SKY/WX    TMP DP  RH WIND       PRES   REMARKS
TUCUMCARI      CLOUDY    44  29  55 N12       29.79R
CANNON AFB     NOT AVBL
CLOVIS AIRPORT PTSUNNY   43  28  56 N16G23    29.80R

$$
NMZ028-029-538-221700-
SOUTHEAST PLAINS

CITY           SKY/WX    TMP DP  RH WIND       PRES   REMARKS
ROSWELL        CLOUDY    64  29  26 NW28G35   29.77R
ARTESIA        CLOUDY    55  32  41 W14       29.80F
CARLSBAD       CLOUDY    63  30  28 W22       29.77S
HOBBS          SUNNY     55  30  38 W12G17    29.80R


$$



USA.gov is the U.S. government's official web portal to all federal, state and local government web resources and services.